Tracking 23757 objects as of 25-Oct-2021
HD Live streaming from Space Station
objects crossing your sky now

FREGAT DEB

Track FREGAT DEB now!
10-day predictions


NORAD ID: 45930
Int'l Code: 2011-037EU
Perigee: 635.5 km
Apogee: 1,318.6 km
Inclination: 50.9 °
Period: 104.5 minutes
Semi major axis: 7348 km
RCS: Unknown
Launch date: July 18, 2011
Source: Commonwealth of Independent States (former USSR) (CIS)
Launch site: TYURATAM MISSILE AND SPACE COMPLEX (TTMTR)

Note: This is SATELLITE DEBRIS
aabbcc
Your satellite tracking list
Your tracking list is empty




NASA's NSSDC Master Catalog

Two Line Element Set (TLE):
1 45930U 11037EU  21297.68906150  .00015698  00000-0  69338-2 0  9999
2 45930  50.9285  34.8732 0464801  35.3031 327.7741 13.78293760 62552
Source of the keplerian elements: AFSPC